Temperature
20 19 19 19 19 19 19 19 19 19 19 19 19 19 19 19 19 19 19 19 19 19 19 19 19 18 18 18 19 19 19 18 18 18 18 18 18 18 18 18 18 17 18
20 19 19 19 19 19 19 19 19 19 19 19 19 19 19 19 19 19 19 19 19 19 19 19 19 18 18 18 18 18 18 18 18 18 18 18 18 18 18 18 17 17 18
20 19 19 19 19 19 19 19 19 19 19 19 19 19 19 19 19 19 19 19 19 19 19 19 18 18 18 18 18 18 18 18 18 18 18 17 17 18 18 18 18 18 18
20 19 19 19 19 19 19 19 19 19 19 19 19 19 19 19 19 19 19 19 19 19 18 18 18 18 18 18 18 18 18 18 18 18 17 17 17 17 17 18 18 18 17
19 19 19 19 19 19 19 19 19 19 19 19 19 19 19 19 19 19 18 18 18 18 18 18 18 18 18 18 18 18 18 18 18 17 17 17 17 17 17 18 18 18 17
19 19 19 19 19 19 19 19 19 19 19 19 19 19 19 19 19 19 18 18 18 18 18 18 18 18 18 18 18 18 18 18 18 17 17 17 17 17 18 18 17 17 17
19 19 19 19 19 19 19 19 19 19 19 19 19 19 19 19 19 19 18 18 18 18 18 18 18 18 18 18 18 18 18 18 18 17 17 17 17 17 18 17 17 17 17
19 19 19 19 19 19 19 19 19 19 19 19 19 19 19 19 19 19 19 18 18 18 18 18 18 18 18 18 18 18 18 17 17 17 17 17 17 17 17 17 17 17 17
19 19 19 19 19 19 19 19 19 19 19 19 19 19 19 19 19 19 18 18 18 18 18 18 18 18 18 18 18 18 18 18 18 17 17 17 17 17 17 17 17 17 17
19 19 19 19 19 19 19 19 19 19 19 19 19 19 19 19 19 18 18 18 18 18 18 18 18 18 18 18 18 18 18 18 18 18 17 17 17 17 17 17 17 17 17
19 19 19 19 19 19 19 18 18 19 19 19 18 19 18 18 18 18 18 18 18 18 18 18 18 18 18 18 18 18 18 18 18 18 17 17 17 17 17 17 17 17 17
19 19 19 19 19 19 19 19 18 18 18 18 18 18 18 18 18 18 18 18 18 18 18 18 18 18 18 17 17 17 18 18 18 17 17 18 17 17 17 17 17 17 17
20 19 19 19 19 19 19 19 19 19 18 18 18 18 18 18 18 18 18 18 18 18 18 18 18 18 18 17 17 17 18 18 18 17 17 18 18 17 17 17 17 17 17
20 19 19 19 19 19 19 19 19 19 19 19 18 18 18 18 18 18 18 18 18 18 18 18 18 18 17 17 17 17 17 18 18 17 17 17 17 17 17 17 17 17 17
20 19 19 19 19 19 19 19 19 19 19 19 18 18 18 18 18 18 18 18 18 18 18 18 18 18 17 17 17 17 17 17 17 17 17 17 17 17 17 17 17 17 17
20 19 19 19 19 19 19 19 19 19 19 19 18 18 18 18 18 18 18 18 18 18 18 18 18 18 17 17 17 17 17 17 17 17 17 17 17 17 17 17 17 17 17
20 19 19 19 19 19 19 19 19 19 19 19 19 18 18 18 18 18 18 18 18 18 18 18 18 18 17 17 17 17 17 17 17 17 17 17 17 17 17 17 17 17 17
20 19 19 19 19 19 19 19 19 19 19 19 19 18 18 18 18 18 18 18 18 18 18 18 18 18 18 17 17 17 17 17 17 17 17 17 17 17 17 17 17 17 17
20 20 20 19 19 19 19 19 19 19 19 18 18 18 18 18 18 18 18 18 18 18 18 18 18 18 18 18 17 17 17 17 17 17 17 17 17 17 17 17 17 17 17
20 20 20 20 19 19 19 19 19 19 19 18 18 18 18 18 18 18 18 18 18 18 18 18 18 18 17 17 18 18 18 17 17 17 17 17 17 17 17 16 17 17 17
20 20 20 20 20 19 19 19 19 19 19 18 18 18 18 18 18 18 18 18 18 18 18 18 18 18 17 17 17 18 18 18 18 17 17 17 17 17 17 16 16 17 17
20 20 20 20 20 19 19 19 19 19 19 19 19 18 18 18 18 18 18 18 18 18 18 18 18 18 18 17 18 18 19 19 18 18 17 17 17 17 17 17 16 16 16
21 20 20 20 20 20 19 19 19 19 19 19 19 18 18 18 18 18 18 18 18 18 18 18 18 17 18 17 17 18 19 19 18 18 17 17 17 17 17 17 17 16 16
21 21 20 20 20 20 20 19 19 19 19 19 19 19 19 19 18 18 18 18 18 18 18 18 18 17 17 18 17 17 17 18 18 18 18 18 17 17 17 17 17 17 16
21 21 20 20 20 20 20 19 19 19 19 19 19 19 19 19 19 18 18 18 18 18 18 18 18 17 17 18 18 17 17 17 17 18 18 17 17 17 17 17 17 16 16
21 21 21 20 20 20 20 20 20 19 19 19 19 19 19 19 19 18 18 18 18 18 18 18 18 18 17 17 17 17 17 18 18 18 18 17 17 17 17 17 16 16 16
Wind_Speed
4 7 9 6 7 7 8 9 10 11 12 12 13 13 13 13 13 12 13 13 14 14 15 15 15 14 14 13 13 13 12 12 12 11 11 11 11 10 10 9 9 10 11
6 8 10 7 8 9 9 10 11 11 12 12 12 12 12 12 12 12 13 13 14 14 14 14 14 14 13 13 13 12 12 11 11 11 11 10 10 9 8 6 4 9 10
6 7 9 8 8 9 10 10 11 11 11 11 12 12 12 11 11 12 13 13 13 14 14 14 14 13 13 12 12 12 11 11 11 10 9 8 9 9 8 7 8 9 9
5 7 9 9 8 9 10 10 11 11 10 11 11 12 11 12 11 11 12 13 13 13 13 13 13 13 12 12 11 11 11 10 10 8 6 7 8 9 8 7 8 8 8
6 8 10 9 9 9 10 10 10 11 10 10 11 11 11 11 11 12 12 12 13 13 13 13 13 13 13 12 11 11 11 9 7 6 5 5 6 8 8 7 7 8 8
6 8 10 9 9 9 9 9 10 10 10 10 10 10 10 11 11 12 12 12 13 13 12 13 13 13 12 11 11 11 9 8 7 5 5 5 6 8 8 7 7 7 7
7 8 10 9 9 8 8 9 9 9 10 10 10 10 10 10 10 10 10 11 12 12 12 12 12 12 12 11 10 10 8 5 4 5 5 4 6 7 7 6 6 7 7
7 7 9 10 9 8 8 8 9 9 9 9 9 9 9 10 10 9 10 11 11 11 11 11 11 11 11 10 9 9 7 5 5 4 4 4 6 7 7 6 6 6 7
7 6 7 8 10 10 9 8 8 9 8 9 9 9 9 9 9 9 9 10 10 10 10 10 11 10 10 9 9 8 6 5 3 3 4 4 7 7 6 6 5 6 6
6 5 5 6 7 8 10 9 8 8 8 8 8 8 9 10 9 9 9 10 10 10 10 10 10 10 9 9 8 7 6 6 4 3 3 5 7 6 6 6 5 6 6
6 5 5 6 7 7 7 9 9 9 8 8 8 8 6 7 8 8 10 11 9 9 9 9 10 9 9 9 8 7 7 3 2 2 2 6 6 6 6 5 5 5 5
6 5 5 6 7 7 6 7 6 6 7 5 6 6 6 6 6 8 11 10 9 9 9 9 9 9 7 6 8 8 4 2 2 2 4 6 4 5 5 5 5 5 5
6 6 5 6 6 5 5 5 4 5 5 6 6 6 6 5 6 6 6 8 8 8 6 8 8 5 4 3 3 3 2 2 2 2 4 5 3 4 5 5 6 6 6
6 5 5 5 5 4 4 4 4 4 4 4 6 5 5 3 3 4 3 4 4 4 4 3 3 4 4 3 3 3 2 2 2 2 4 5 3 4 4 5 6 7 7
5 5 5 5 5 4 4 2 4 3 3 4 4 4 3 3 3 3 3 3 2 3 4 3 3 4 4 4 3 3 2 2 2 2 3 5 4 4 4 5 6 7 7
5 5 5 4 4 4 4 3 2 3 3 3 3 4 3 3 3 2 3 2 2 2 2 2 3 3 2 2 2 2 2 2 2 2 2 5 5 5 4 5 6 7 7
5 5 4 5 4 4 3 2 3 2 3 2 3 4 3 3 3 2 2 2 2 2 3 3 3 2 2 2 2 2 2 2 2 2 2 2 4 6 5 4 5 6 7
5 5 4 4 5 4 2 2 2 2 2 2 2 3 3 2 2 1 1 2 2 2 2 2 2 2 2 2 2 1 1 2 2 2 3 2 2 3 5 5 5 6 7
6 6 6 4 4 3 3 2 2 2 1 1 2 2 2 2 2 2 1 2 2 2 2 2 2 1 1 1 1 2 2 2 2 2 3 3 3 3 3 6 6 7 7
7 6 6 6 5 4 3 3 2 1 1 1 1 2 1 1 1 1 2 2 2 2 2 1 2 1 1 1 1 1 2 2 2 2 3 3 3 3 3 3 4 7 9
7 7 6 6 5 4 3 2 2 2 1 1 1 2 1 1 1 1 1 2 2 2 2 2 2 2 2 1 2 1 2 3 2 2 2 2 2 3 3 4 4 4 6
8 7 7 6 6 5 3 2 1 1 1 1 0 1 1 1 1 1 1 2 2 1 2 2 2 2 2 2 2 2 2 2 2 2 2 2 2 2 3 4 4 4 4
8 8 7 6 6 5 4 3 2 2 2 1 1 1 1 1 1 0 1 1 1 2 2 3 3 3 2 2 2 3 3 2 1 2 2 2 2 2 3 3 3 3 4
9 8 8 7 7 6 5 4 4 3 2 1 1 1 1 1 1 1 1 1 2 2 2 3 3 3 3 3 2 3 4 3 3 2 2 2 2 3 3 3 3 3 4
9 8 8 8 7 7 6 6 5 4 3 2 2 1 2 2 2 2 1 2 2 2 2 3 2 3 3 3 3 2 2 3 4 4 3 3 2 2 2 3 2 2 3
8 8 8 8 7 7 7 6 6 5 3 3 2 2 3 2 2 2 2 2 3 2 3 3 4 4 4 3 4 3 3 3 3 3 4 4 3 2 2 2 2 2 3
Wind_Direction
68 76 88 87 93 102 107 109 109 112 114 118 123 126 131 135 137 140 144 143 143 143 142 142 142 140 138 136 135 132 129 128 126 125 123 122 123 125 130 138 148 131 127
74 83 92 87 94 100 105 107 109 112 113 117 121 124 127 132 138 140 141 143 144 144 144 144 141 140 139 137 135 133 132 130 128 128 128 126 125 125 131 136 120 118 130
78 89 99 96 98 100 105 108 111 113 115 117 119 122 126 131 136 139 142 144 144 145 144 144 141 139 136 135 135 134 132 129 130 136 149 136 129 129 128 126 124 131 138
77 87 86 94 99 103 108 111 111 112 115 116 116 120 121 124 128 135 139 141 141 142 143 142 140 138 138 136 136 134 132 132 139 162 151 132 131 130 134 133 140 145 150
82 88 87 91 94 99 106 110 111 111 114 117 116 119 122 123 126 129 130 134 136 136 136 139 141 142 142 140 137 133 133 137 156 173 129 127 125 129 139 144 146 156 162
91 96 96 92 96 99 104 108 109 109 111 115 118 119 122 124 126 128 130 133 135 135 136 136 138 142 143 140 137 133 136 149 172 141 138 143 137 142 149 151 155 160 170
89 93 102 98 98 101 104 107 109 109 110 111 114 117 120 123 126 128 132 132 136 137 137 138 138 139 141 138 138 140 146 171 164 148 149 146 132 144 154 156 163 167 166
89 94 108 115 110 106 103 102 107 108 109 109 110 112 117 121 123 126 134 134 137 138 140 145 143 142 142 143 142 146 159 195 166 155 150 137 130 150 155 161 168 168 170
87 96 103 119 126 129 119 111 106 104 106 110 113 115 117 119 122 125 130 133 133 137 140 144 146 147 146 146 145 151 168 215 194 158 153 141 144 161 165 168 169 171 170
83 88 100 110 120 129 126 120 113 109 110 114 117 119 128 133 130 132 136 133 132 137 140 140 140 144 146 146 150 162 182 214 196 169 148 132 149 167 174 175 172 170 173
84 80 81 97 115 118 114 122 129 129 125 139 134 137 146 127 120 125 113 125 131 134 136 137 139 144 151 153 161 177 199 201 160 134 119 119 150 172 179 180 179 175 177
95 88 80 87 102 108 110 118 122 123 119 116 108 119 122 113 113 110 120 127 131 137 143 143 147 162 177 159 165 188 191 172 162 146 116 133 167 186 190 187 187 185 188
105 96 94 95 92 96 109 113 108 109 110 111 107 110 112 117 118 115 126 136 140 151 145 147 162 157 147 141 167 170 164 182 160 152 130 142 175 203 205 194 185 194 202
106 105 97 101 98 90 90 108 113 107 107 108 114 112 111 108 108 107 113 116 127 127 134 148 148 132 138 157 167 163 187 202 185 162 137 155 191 213 217 203 201 205 209
119 113 106 105 106 109 109 107 107 103 102 107 107 107 111 117 112 116 109 114 123 130 141 141 135 137 150 165 169 168 180 201 207 205 151 162 200 220 225 214 214 211 209
133 126 120 122 120 118 120 116 112 115 118 106 109 105 106 104 99 108 118 119 118 122 120 134 134 143 145 144 159 169 192 189 182 226 193 177 191 203 213 214 216 210 210
149 143 140 138 130 126 122 127 130 130 125 115 109 110 108 113 112 129 123 135 119 128 133 136 137 145 156 166 167 173 191 198 192 213 231 221 184 184 198 215 216 212 212
157 154 157 152 140 141 136 129 126 122 113 115 115 112 115 116 131 144 123 122 134 143 139 149 164 157 157 175 178 199 197 196 212 217 217 206 217 188 179 191 214 212 204
169 165 163 163 158 151 146 148 137 131 130 125 117 114 117 131 145 165 137 132 169 155 165 182 154 175 173 185 199 199 215 215 226 224 225 216 212 218 196 164 190 198 201
174 173 171 167 167 169 163 156 151 134 145 140 131 115 122 138 150 183 170 160 179 167 168 166 166 187 208 232 257 248 240 221 229 231 234 215 205 214 215 205 197 198 200
179 178 179 179 171 178 182 186 166 160 154 139 137 114 129 125 146 211 197 161 196 176 186 188 187 186 212 222 250 251 213 216 223 229 238 237 217 223 217 219 229 221 196
183 184 184 188 186 192 186 195 183 163 177 138 117 118 175 174 213 200 190 212 196 186 195 195 206 237 235 238 277 276 244 202 204 227 222 217 244 235 220 219 227 228 238
188 188 188 188 187 195 192 190 184 176 203 177 166 167 188 202 210 276 203 247 226 229 206 212 213 227 247 244 267 290 296 310 284 200 228 220 225 245 250 235 221 219 228
191 187 187 186 188 190 190 197 202 201 199 191 208 181 183 203 216 225 236 260 256 250 222 231 213 229 238 248 245 267 287 307 290 275 228 227 233 242 257 251 230 213 221
189 187 186 186 188 188 192 197 208 215 209 205 201 176 226 206 218 230 238 248 248 252 244 253 230 241 237 255 265 263 255 255 262 274 280 284 269 256 249 246 252 237 224
185 185 185 184 189 189 193 199 208 215 224 234 234 223 226 213 210 216 232 245 252 260 248 246 238 228 242 254 268 265 264 262 272 265 270 270 274 271 265 260 259 245 230
Height
1514 1512 1510 1510 1510 1510 1510 1509 1509 1508 1508 1508 1509 1511 1513 1516 1518 1520 1522 1524 1526 1527 1530 1532 1534 1535 1537 1538 1540 1542 1543 1544 1545 1546 1547 1548 1549 1550 1550 1551 1552 1553 1553
1516 1514 1512 1512 1512 1512 1512 1512 1512 1512 1512 1512 1513 1515 1517 1518 1520 1521 1523 1525 1527 1528 1530 1532 1534 1536 1538 1540 1541 1542 1544 1545 1546 1547 1548 1549 1550 1551 1551 1552 1553 1553 1554
1517 1516 1514 1514 1514 1514 1514 1515 1515 1515 1516 1516 1517 1518 1519 1520 1522 1523 1524 1526 1528 1530 1531 1533 1535 1536 1538 1540 1542 1543 1545 1546 1547 1548 1550 1551 1551 1551 1552 1552 1553 1553 1554
1518 1518 1516 1515 1516 1516 1517 1517 1518 1518 1519 1520 1520 1521 1522 1523 1524 1525 1526 1527 1529 1531 1532 1534 1535 1537 1539 1541 1543 1544 1546 1547 1548 1550 1552 1552 1552 1552 1552 1552 1553 1554 1554
1519 1519 1517 1517 1518 1518 1519 1520 1520 1521 1521 1522 1523 1524 1525 1525 1526 1527 1528 1529 1530 1532 1532 1533 1535 1537 1540 1542 1543 1545 1547 1548 1549 1551 1552 1553 1553 1552 1552 1553 1553 1554 1554
1520 1520 1519 1519 1519 1520 1521 1521 1522 1523 1524 1524 1525 1526 1527 1528 1528 1529 1530 1530 1532 1533 1534 1535 1536 1538 1540 1542 1544 1545 1547 1548 1550 1552 1553 1553 1553 1553 1553 1553 1553 1554 1554
1521 1522 1521 1520 1521 1521 1522 1523 1524 1525 1526 1527 1527 1528 1529 1530 1530 1531 1531 1532 1533 1535 1536 1537 1538 1540 1541 1543 1545 1547 1548 1549 1552 1553 1553 1554 1553 1553 1553 1554 1554 1554 1555
1522 1522 1521 1521 1522 1523 1524 1525 1526 1527 1528 1529 1529 1530 1531 1532 1532 1532 1532 1534 1535 1536 1537 1538 1540 1541 1543 1545 1546 1547 1549 1550 1552 1553 1553 1554 1553 1553 1553 1554 1554 1554 1554
1524 1523 1523 1523 1523 1524 1525 1527 1528 1528 1529 1530 1531 1532 1533 1533 1534 1534 1534 1535 1537 1537 1539 1540 1541 1543 1544 1546 1547 1548 1549 1550 1553 1553 1553 1553 1552 1553 1553 1553 1553 1554 1554
1524 1524 1524 1523 1524 1526 1527 1528 1529 1530 1531 1532 1533 1533 1534 1535 1535 1535 1536 1537 1538 1539 1540 1541 1543 1544 1545 1547 1548 1549 1549 1551 1553 1553 1553 1553 1552 1552 1552 1553 1553 1553 1553
1525 1525 1524 1523 1524 1527 1529 1530 1531 1532 1533 1534 1534 1535 1536 1537 1538 1537 1537 1538 1539 1540 1541 1543 1544 1545 1546 1547 1548 1549 1550 1552 1553 1553 1553 1552 1552 1552 1552 1552 1552 1552 1553
1527 1527 1526 1526 1527 1529 1531 1532 1533 1535 1535 1535 1536 1536 1537 1538 1539 1539 1539 1540 1540 1541 1543 1544 1545 1546 1548 1549 1549 1550 1551 1552 1552 1552 1552 1551 1551 1551 1551 1551 1551 1551 1552
1530 1529 1529 1529 1529 1531 1533 1534 1535 1536 1536 1537 1537 1537 1538 1539 1540 1541 1541 1542 1542 1543 1544 1545 1546 1548 1549 1549 1550 1550 1551 1552 1552 1552 1551 1551 1551 1551 1550 1550 1550 1550 1551
1531 1531 1531 1531 1532 1533 1534 1536 1537 1537 1538 1539 1538 1539 1540 1540 1541 1542 1542 1543 1544 1544 1545 1546 1547 1547 1548 1549 1549 1550 1550 1551 1551 1551 1551 1550 1550 1550 1549 1549 1549 1549 1549
1533 1533 1533 1533 1533 1534 1535 1537 1538 1538 1540 1540 1540 1540 1541 1542 1542 1543 1543 1543 1545 1545 1546 1546 1547 1547 1548 1548 1549 1549 1549 1550 1550 1551 1550 1549 1549 1548 1548 1547 1547 1547 1548
1535 1535 1535 1535 1535 1536 1537 1538 1539 1540 1540 1541 1542 1542 1542 1543 1543 1543 1544 1544 1545 1546 1546 1546 1547 1547 1548 1548 1548 1548 1549 1549 1549 1549 1549 1548 1547 1547 1546 1546 1545 1545 1545
1535 1536 1536 1537 1537 1537 1538 1540 1541 1542 1542 1542 1543 1542 1542 1543 1543 1544 1544 1545 1545 1546 1546 1546 1547 1547 1547 1548 1547 1548 1548 1548 1548 1548 1548 1548 1547 1546 1545 1544 1544 1544 1544
1536 1536 1537 1539 1539 1539 1539 1540 1542 1542 1543 1543 1543 1543 1543 1543 1543 1544 1544 1545 1545 1546 1546 1546 1547 1547 1547 1547 1547 1547 1547 1547 1547 1546 1547 1546 1546 1546 1544 1543 1542 1542 1543
1536 1536 1537 1539 1539 1540 1540 1541 1542 1542 1543 1544 1544 1544 1544 1544 1544 1544 1544 1544 1545 1546 1546 1547 1547 1547 1547 1547 1547 1546 1546 1546 1546 1546 1545 1545 1544 1544 1543 1542 1541 1541 1541
1536 1536 1537 1538 1539 1540 1541 1541 1542 1543 1543 1544 1544 1544 1544 1544 1544 1544 1544 1544 1545 1546 1546 1546 1546 1546 1546 1546 1546 1546 1545 1545 1545 1544 1544 1544 1543 1542 1542 1542 1541 1540 1540
1535 1536 1537 1538 1539 1540 1541 1542 1543 1544 1544 1544 1544 1544 1544 1544 1544 1544 1545 1544 1545 1545 1545 1545 1546 1546 1546 1545 1545 1545 1545 1544 1544 1543 1543 1543 1542 1541 1541 1540 1540 1540 1539
1534 1535 1536 1537 1539 1540 1541 1541 1542 1543 1544 1544 1544 1544 1544 1544 1544 1544 1544 1544 1544 1544 1544 1544 1544 1545 1546 1545 1545 1544 1544 1544 1543 1543 1542 1541 1541 1540 1540 1539 1538 1538 1538
1532 1534 1535 1536 1538 1539 1540 1541 1542 1542 1543 1544 1544 1544 1543 1543 1543 1543 1543 1543 1543 1544 1544 1543 1543 1544 1545 1545 1544 1544 1543 1542 1542 1542 1541 1540 1539 1539 1538 1538 1537 1536 1536
1531 1532 1534 1535 1536 1537 1539 1540 1542 1542 1543 1544 1544 1544 1543 1543 1543 1543 1542 1542 1542 1543 1542 1542 1543 1543 1543 1543 1543 1542 1542 1542 1541 1540 1540 1539 1538 1537 1537 1536 1536 1535 1534
1530 1531 1533 1534 1535 1536 1537 1539 1540 1541 1542 1543 1543 1542 1542 1543 1542 1542 1541 1541 1541 1541 1541 1540 1540 1540 1541 1541 1541 1541 1541 1540 1540 1539 1538 1538 1537 1536 1535 1534 1534 1534 1533
1528 1529 1531 1532 1533 1534 1536 1537 1538 1539 1540 1541 1541 1542 1542 1542 1541 1541 1540 1540 1539 1539 1539 1538 1538 1538 1538 1539 1539 1539 1539 1538 1538 1537 1536 1535 1534 1534 1533 1533 1532 1532 1531